This demonstration page uses our WeatherBlox Daily Observations layout. Learn more.

41.55636, -103.73856

Hourly Observations for May 15, 2015

Temp ( °F °C ) Dew Point ( °F °C ) Humidity (%) Winds ( mph kmh ) Pressure ( in mb ) Visibility ( mi km ) Precip ( " mm )
12:53 am 00:53 Partly Cloudy 57 13.9 51 10.6 81 81 E 14 22 29.78 1008 10 16.0934 0 0
1:39 am 01:39 Cloudy with Nearby Thunderstorms 55 13 52 11 88 88 ESE 10 17 29.8 1009 10 16.0934 0 0
1:52 am 01:52 Mostly Clear with Thunderstorms 55 13 N/A N/A ESE 7 11 29.77 1008 N/A 0.01 0.254
2:53 am 02:53 Cloudy with Light Thunderstorms 53 11.7 52 11.1 96 96 E 16 26 29.74 1007 10 16.0934 0.05 1.27
3:09 am 03:09 Cloudy with Nearby Thunderstorms 54 12 N/A N/A E 21 33 29.77 1008 8 12.87472 0.01 0.254
3:32 am 03:32 Cloudy with Light Rain 55 13 N/A N/A E 15 24 29.68 1005 10 16.0934 0 0
3:53 am 03:53 Cloudy 55 13 N/A N/A ESE 13 20 29.7 1006 10 16.0934 0.02 0.508
4:53 am 04:53 Mostly Cloudy 54 12 N/A N/A E 15 24 29.74 1007 10 16.0934 0 0
5:53 am 05:53 Mostly Cloudy 53 11.7 53 11.7 100 100 E 12 19 29.71 1006 10 16.0934 0 0
6:53 am 06:53 Cloudy 54 12.2 54 12.2 100 100 ESE 12 19 29.73 1007 10 16.0934 0 0
7:53 am 07:53 Cloudy 54 12.2 53 11.7 97 97 E 13 20 29.75 1007 10 16.0934 0 0.0254
8:23 am 08:23 Cloudy 54 12.2 51 10.6 90 90 E 16 26 29.77 1008 10 16.0934 0 0
8:53 am 08:53 Cloudy 54 12.2 52 11.1 93 93 E 14 22 29.75 1008 10 16.0934 0 0
9:53 am 09:53 Cloudy with Light Rain 54 12.2 53 11.7 97 97 E 14 22 29.76 1008 3 4.82802 0 0.0254
9:58 am 09:58 Cloudy with Light Rain 54 12 54 12 100 100 E 13 20 29.77 1008 1.75 2.816345 0 0
10:29 am 10:29 Cloudy with Mist and Fog 55 12.8 53 11.7 93 93 ESE 15 24 29.71 1006 2.5 4.02335 0.02 0.508
10:38 am 10:38 Cloudy with Haze 55 13 N/A N/A ESE 13 20 29.71 1006 4 6.43736 0 0
10:50 am 10:50 Cloudy with Haze 55 13 N/A N/A ESE 13 20 29.71 1006 6 9.65604 0 0
10:53 am 10:53 Cloudy with Haze 55 13 N/A N/A ESE 14 22 29.72 1007 6 9.65604 0.02 0.508
11:53 am 11:53 Cloudy 59 15 N/A N/A ESE 15 24 29.67 1005 8 12.87472 0 0
12:14 pm 12:14 Cloudy 63 17 N/A N/A SE 17 28 29.59 1002 10 16.0934 0 0
12:36 pm 12:36 Mostly Cloudy 64 18 64 18 100 100 SE 18 30 29.56 1001 10 16.0934 0 0
12:53 pm 12:53 Cloudy 65 18.3 57 13.9 76 76 ESE 17 28 29.63 1003 10 16.0934 0 0
1:18 pm 13:18 Cloudy 66 19 55 13 68 68 E 20 31 29.53 1000 10 16.0934 0 0
1:53 pm 13:53 Partly Cloudy 70 21.1 57 13.9 64 64 E 22 35 29.57 1002 10 16.0934 0 0
2:51 pm 14:51 Partly Cloudy with Nearby Thunderstorms 70 21 55 13 60 60 ESE 26 43 29.47 998 10 16.0934 0 0.0254
2:53 pm 14:53 Partly Cloudy with Nearby Thunderstorms 69 20.6 55 12.8 61 61 ESE 26 43 29.54 1001 10 16.0934 0 0.0254
3:02 pm 15:02 Windy with Storms Likely 63 17 55 13 77 77 SE 24 39 29.5 999 5 8.0467 0 0
3:17 pm 15:17 Mostly Cloudy with Nearby Thunderstorms 64 17.8 58 14.4 81 81 ESE 17 28 29.47 998 10 16.0934 0.02 0.508
3:28 pm 15:28 Mostly Sunny 64 18 57 14 78 78 ESE 25 41 29.47 998 10 16.0934 0 0
3:53 pm 15:53 Mostly Cloudy 63 17.2 54 12.2 73 73 ESE 24 39 29.5 999 10 16.0934 0.02 0.508
4:53 pm 16:53 Mostly Cloudy with Light Rain 62 16.7 54 12.2 75 75 ESE 13 20 29.52 1000 10 16.0934 0 0.0254
5:11 pm 17:11 Mostly Cloudy with Nearby Thunderstorms 62 16.7 55 12.8 78 78 SE 14 22 29.47 998 10 16.0934 0.02 0.508
5:26 pm 17:26 Cloudy 63 17 55 13 77 77 S 9 15 29.47 998 10 16.0934 0 0
5:50 pm 17:50 Cloudy with Heavy Thunderstorms 52 11 46 8 82 82 WNW 15 24 29.62 1003 1.75 2.816345 0 0
5:53 pm 17:53 Cloudy with Heavy Thunderstorms 51 10.6 46 7.8 83 83 WNW 14 22 29.65 1004 1.25 2.011675 0.18 4.572
6:01 pm 18:01 Cloudy with Light Thunderstorms 52 11.1 47 8.3 83 83 WNW 14 22 29.62 1003 3 4.82802 0.07 1.778
6:16 pm 18:16 Cloudy with Nearby Thunderstorms 54 12 48 9 82 82 NW 16 26 29.62 1003 10 16.0934 0 0
6:26 pm 18:26 Mostly Cloudy 54 12 48 9 82 82 NW 22 35 29.59 1002 10 16.0934 0 0
6:53 pm 18:53 Mostly Cloudy 54 12.2 51 10.6 90 90 NW 20 31 29.61 1003 10 16.0934 0.07 1.778
7:53 pm 19:53 Cloudy 52 11.1 45 7.2 77 77 N 8 13 29.66 1005 10 16.0934 0 0
8:53 pm 20:53 Mostly Cloudy 50 10 44 6.7 80 80 NNW 9 15 29.67 1005 10 16.0934 0 0.0254
9:53 pm 21:53 Mostly Cloudy 50 10 43 6.1 77 77 WNW 10 17 29.67 1005 10 16.0934 0 0
10:53 pm 22:53 Mostly Cloudy 49 9.4 44 6.7 83 83 W 5 7 29.66 1005 10 16.0934 0 0
11:53 pm 23:53 Clear 47 8.3 42 5.6 83 83 W 3 6 29.66 1005 10 16.0934 0 0

Powered by AerisWeather